This is the latest recevied weather packets stored in our database for station/object DF9PM-13. If no packets are shown the sender has not sent any weather packets the latest 10 day(s).
| Time | Temp. | Humidity | Pressure | Rain* | Wind** | Luminosity | Snow |
|---|---|---|---|---|---|---|---|
| 1777391916 | 22.22° C | 29% | 1017.4 hPa | - | - | - | - |
| 1777391616 | 22.22° C | 28% | 1017.4 hPa | - | - | - | - |
| 1777391316 | 22.78° C | 27% | 1017.3 hPa | - | - | - | - |
| 1777391016 | 22.22° C | 28% | 1017.3 hPa | - | - | - | - |
| 1777390716 | 23.33° C | 26% | 1017.3 hPa | - | - | - | - |
| 1777390416 | 22.78° C | 26% | 1017.3 hPa | - | - | - | - |
| 1777390116 | 23.33° C | 25% | 1017.2 hPa | - | - | - | - |
| 1777389816 | 23.33° C | 25% | 1017.3 hPa | - | - | - | - |
| 1777389516 | 23.89° C | 24% | 1017.3 hPa | - | - | - | - |
| 1777389216 | 23.89° C | 23% | 1017.3 hPa | - | - | - | - |
| 1777388916 | 24.44° C | 23% | 1017.4 hPa | - | - | - | - |
| 1777388616 | 24.44° C | 22% | 1017.4 hPa | - | - | - | - |
| 1777388315 | 23.89° C | 22% | 1017.4 hPa | - | - | - | - |
| 1777388015 | 24.44° C | 22% | 1017.3 hPa | - | - | - | - |
| 1777387715 | 24.44° C | 21% | 1017.5 hPa | - | - | - | - |
| 1777387415 | 24.44° C | 21% | 1017.5 hPa | - | - | - | - |
| 1777387115 | 24.44° C | 21% | 1017.5 hPa | - | - | - | - |
| 1777386815 | 25° C | 21% | 1017.6 hPa | - | - | - | - |
| 1777386515 | 25° C | 20% | 1017.5 hPa | - | - | - | - |
| 1777386215 | 25° C | 20% | 1017.6 hPa | - | - | - | - |
| 1777385915 | 25° C | 21% | 1017.7 hPa | - | - | - | - |
| 1777385615 | 24.44° C | 20% | 1017.7 hPa | - | - | - | - |
| 1777385315 | 24.44° C | 20% | 1017.5 hPa | - | - | - | - |
| 1777385015 | 24.44° C | 21% | 1017.7 hPa | - | - | - | - |
| 1777384715 | 23.89° C | 21% | 1017.8 hPa | - | - | - | - |
* Rain since midnight (hover to see other rain measurements)
** Current wind speed in m/s (hover to see current wind gust speed)